EHI
0 0 0 0 0 0 0 0 0 0 0 0 0 0 0 0 0 0 0 0 0 0 0 0 0 0 0 0 0 0 0 0 0 0 0 0 0 0 0 0 0 0 0
0 0 0 0 0 0 0 0 0 0 0 0 0 0 0 0 0 0 0 0 0 0 0 0 0 0 0 0 0 0 0 0 0 0 0 0 0 0 0 0 0 0 0
0 0 0 0 0 0 0 0 0 0 0 0 0 0 0 0 0 0 0 0 0 0 0 0 0 0 0 0 0 0 0 0 0 0 0 0 0 0 0 0 0 0 0
0 0 0 0 0 0 0 0 0 0 0 0 0 0 0 0 0 0 0 0 0 0 0 0 0 0 0 0 0 0 0 0 0 0 0 0 0 0 0 0 0 0 0
0 0 0 0 0 0 0 0 0 0 0 0 0 0 0 0 0 0 0 0 0 0 0 0 0 0 0 0 0 0 0 0 0 0 0 0 0 0 0 0 0 0 0
0 0 0 0 0 0 0 0 0 0 0 0 0 0 0 0 0 0 0 0 0 0 0 0 0 0 0 0 0 0 0 0 0 0 0 0 0 0 0 0 0 0 0
0 0 0 0 0 0 0 0 0 0 0 0 0 0 0 0 0 0 0 0 0 0 0 0 0 0 0 0 0 0 0 0 0 0 0 0 0 0 0 0 0 0 0
0 0 0 0 0 0 0 0 0 0 0 0 0 0 0 0 0 0 0 0 0 0 0 0 0 0 0 0 0 0 0 0 0 0 0 0 0 0 0 0 0 0 0
0 0 0 0 0 0 0 0 0 0 0 0 0 0 0 0 0 0 0 0 0 0 0 0 0 0 0 0 0 0 0 0 0 0 0 0 0 0 0 0 0 0 0
0 0 0 0 0 0 0 0 0 0 0 0 0 0 0 0 0 0 0 0 0 0 0 0 0 0 0 0 0 0 0 0 0 0 0 0 0 0 0 0 0 0 0
0 0 0 0 0 0 0 0 0 0 0 0 0 0 0 0 0 0 0 0 0 0 0 0 0 0 0 0 0 0 0 0 0 0 0 0 0 0 0 0 0 0 0
0 0 0 0 0 0 0 0 0 0 0 0 0 0 0 0 0 0 0 0 0 0 0 0 0 0 0 0 0 0 0 0 0 0 0 0 0 0 0 0 0 0 0
0 0 0 0 0 0 0 0 0 0 0 0 0 0 0 0 0 0 0 0 0 0 0 0 0 0 0 0 0 0 0 0 0 0 0 0 0 0 0 0 0 0 0
0 0 0 0 0 0 0 0 0 0 0 0 0 0 0 0 0 0 0 0 0 0 0 0 0 0 0 0 0 0 0 0 0 0 0 0 0 0 0 0 0 0 0
0 0 0 0 0 0 0 0 0 0 0 0 0 0 0 0 0 0 0 0 0 0 0 0 0 0 0 0 0 0 0 0 0 0 0 0 0 0 0 0 0 0 0
0 0 0 0 0 0 0 0 0 0 0 0 0 0 0 0 0 0 0 0 0 0 0 0 0 0 0 0 0 0 0 0 0 0 0 0 0 0 0 0 0 0 0
0 0 0 0 0 0 0 0 0 0 0 0 0 0 0 0 0 0 0 0 0 0 0 0 0 0 0 0 0 0 0 0 0 0 0 0 0 0 0 0 0 0 0
0 0 0 0 0 0 0 0 0 0 0 0 0 0 0 0 0 0 0 0 0 0 0 0 0 0 0 0 0 0 0 0 0 0 0 0 0 0 0 0 0 0 0
0 0 0 0 0 0 0 0 0 0 0 0 0 0 0 0 0 0 0 0 0 0 0 0 0 0 0 0 0 0 0 0 0 0 0 0 0 0 0 0 0 0 0
0 0 0 0 0 0 0 0 0 0 0 0 0 0 0 0 0 0 0 0 0 0 0 0 0 0 0 0 0 0 0 0 0 0 0 0 0 0 0 0 0 0 0
0 0 0 0 0 0 0 0 0 0 0 0 0 0 0 0 0 0 0 0 0 0 0 0 0 0 0 0 0 0 0 0 0 0 0 0 0 0 0 0 0 0 0
0 0 0 0 0 0 0 0 0 0 0 0 0 0 0 0 0 0 0 0 0 0 0 0 0 0 0 0 0 0 0 0 0 0 0 0 0 0 0 0 0 0 0
0 0 0 0 0 0 0 0 0 0 0 0 0 0 0 0 0 0 0 0 0 0 0 0 0 0 0 0 0 0 0 0 0 0 0 0 0 0 0 0 0 0 0
0 0 0 0 0 0 0 0 0 0 0 0 0 0 0 0 0 0 0 0 0 0 0 0 0 0 0 0 0 0 0 0 0 0 0 0 0 0 0 0 0 0 0
0 0 0 0 0 0 0 0 0 0 0 0 0 0 0 0 0 0 0 0 0 0 0 0 0 0 0 0 0 0 0 0 0 0 0 0 0 0 0 0 0 0 0
0 0 0 0 0 0 0 0 0 0 0 0 0 0 0 0 0 0 0 0 0 0 0 0 0 0 0 0 0 0 0 0 0 0 0 0 0 0 0 0 0 0 0
Wind_Speed
6 6 6 6 6 5 5 6 6 6 6 6 6 6 6 6 6 5 6 6 7 7 7 7 7 6 5 4 4 4 5 5 4 2 1 2 4 6 6 5 5 5 6
7 7 7 7 7 7 7 8 7 7 7 6 6 6 7 7 6 6 7 7 7 7 7 7 8 6 6 5 4 5 5 5 4 4 3 3 4 7 7 7 5 6 6
8 8 8 8 8 9 9 9 8 8 8 7 6 7 7 7 6 7 7 7 7 7 7 8 8 7 6 5 5 5 4 4 4 5 4 3 3 5 7 7 7 6 7
8 8 9 10 10 10 10 9 9 9 8 8 8 8 7 7 7 7 7 7 7 7 7 8 8 7 7 6 5 5 4 4 5 6 6 5 5 5 6 7 6 4 5
8 9 10 10 9 9 9 9 9 9 9 8 8 8 7 6 7 7 6 7 7 7 7 7 8 9 10 8 6 6 6 5 6 7 7 6 7 8 7 5 8 6 5
9 10 10 9 9 9 9 9 8 8 8 7 8 8 8 7 9 11 9 7 7 7 7 7 7 8 10 11 11 11 11 10 9 8 6 9 9 8 6 8 8 7 4
9 9 9 9 9 9 9 8 8 8 8 8 8 8 8 9 13 13 13 8 7 7 7 7 6 6 7 5 7 9 10 12 12 9 10 10 10 10 10 9 7 5 5
9 9 8 8 9 8 8 8 8 7 7 7 8 8 8 9 13 13 13 8 7 7 7 8 7 6 6 7 7 6 5 6 8 7 8 8 10 10 9 9 9 7 6
8 8 8 7 7 7 7 8 7 6 7 7 7 8 8 9 12 13 11 5 5 7 7 7 8 7 9 11 9 8 7 5 6 10 10 11 13 13 11 9 8 9 7
8 8 7 7 7 7 8 8 7 6 7 7 7 7 8 8 11 13 11 4 5 5 5 6 9 10 11 12 10 11 10 8 9 10 10 11 10 12 13 10 10 10 8
9 8 8 8 8 8 8 8 7 7 6 7 7 7 7 9 10 12 11 5 5 5 5 5 5 10 12 12 10 9 12 11 10 11 9 8 7 6 6 5 6 9 8
10 10 9 9 9 9 7 7 7 6 6 6 6 6 6 6 8 9 11 10 8 5 5 4 5 10 12 12 9 11 15 13 9 9 8 7 6 5 5 5 6 5 4
11 11 10 10 9 8 8 8 6 6 5 5 5 5 5 4 5 8 8 9 9 6 4 6 7 10 11 10 12 15 13 9 9 9 8 6 5 5 6 6 7 7 6
12 11 10 9 9 8 7 6 6 6 5 5 5 5 4 3 3 3 3 3 5 5 3 5 8 9 8 10 11 9 7 7 9 9 7 6 5 5 6 6 7 6 6
11 10 10 9 8 7 6 6 7 6 7 6 5 5 4 4 5 6 5 4 4 3 4 4 5 6 6 7 6 6 6 8 7 7 8 7 6 6 5 4 5 5 5
10 9 7 6 5 5 5 6 8 8 9 11 10 7 5 5 6 7 7 6 6 8 5 5 6 6 8 8 8 7 7 7 8 8 7 7 7 7 5 4 4 6 6
9 8 6 5 5 4 4 4 3 3 3 5 7 8 7 7 7 7 7 7 7 8 4 4 5 6 7 7 7 7 7 7 7 8 8 7 6 6 6 5 5 5 5
8 9 7 4 4 4 3 3 3 2 1 1 1 4 7 8 7 7 8 7 4 4 4 4 5 6 6 7 7 7 7 7 7 7 7 7 6 6 6 6 5 5 5
7 5 4 3 3 3 3 2 2 2 2 3 3 3 5 6 5 5 6 3 4 4 4 4 4 5 5 6 6 7 7 7 7 7 7 7 6 6 6 5 5 8 5
5 8 6 2 1 1 1 2 2 2 3 4 4 4 4 4 3 3 2 2 3 3 3 3 3 4 5 6 6 7 7 6 7 6 6 6 6 6 7 7 7 7 5
5 5 7 3 1 1 1 2 2 2 3 4 4 6 8 4 4 4 3 3 3 3 3 3 3 4 4 5 6 7 8 6 6 6 6 6 6 6 6 6 7 7 6
5 4 2 2 1 0 1 2 2 2 3 4 4 5 8 4 4 4 4 3 3 3 3 3 3 4 5 6 7 7 7 7 6 6 6 6 6 6 6 6 6 6 6
5 4 3 1 1 0 1 2 2 3 3 4 5 5 4 3 4 3 3 2 2 3 3 3 3 3 4 6 7 8 8 7 7 8 7 6 6 6 6 6 7 7 6
4 3 2 2 1 1 2 2 3 3 4 4 5 4 4 3 4 4 3 2 2 2 2 3 3 6 8 7 5 6 6 7 7 8 10 8 7 6 5 6 6 7 7
4 2 1 1 2 2 3 3 3 4 4 4 4 4 4 3 3 3 2 2 3 3 4 4 3 6 10 10 8 7 10 12 9 8 7 7 8 7 7 7 6 5 5
4 2 1 1 2 2 3 3 3 3 4 4 4 4 4 3 3 3 3 3 3 3 3 3 5 6 9 8 10 11 11 11 11 10 7 6 7 6 6 5 7 6 6
Wind_Direction
232 235 242 248 253 259 265 269 272 275 281 285 289 293 295 296 296 293 284 276 260 253 245 236 238 235 239 235 225 216 210 200 215 211 178 144 129 125 113 100 92 83 82
237 236 239 244 245 247 252 256 258 261 265 266 270 277 281 285 286 287 284 282 271 260 251 242 241 240 238 232 222 219 211 195 187 188 163 149 134 136 124 112 101 91 85
240 238 241 244 243 243 246 250 251 252 257 259 258 262 268 271 274 276 274 275 269 261 252 243 241 235 238 229 221 219 209 198 179 169 161 144 131 135 124 110 103 97 93
240 237 240 242 240 241 243 245 245 245 248 252 251 252 254 258 263 268 271 274 269 262 254 244 238 230 228 221 220 214 196 181 169 162 157 150 140 135 130 127 116 100 95
242 241 241 242 241 241 242 242 241 240 243 242 245 249 250 251 253 256 263 274 272 268 262 249 239 232 223 216 213 201 183 176 170 164 161 154 151 152 146 139 126 115 87
242 243 243 242 242 241 241 241 240 239 239 238 239 242 246 253 259 264 262 264 265 261 261 256 245 233 225 218 217 204 187 180 176 169 168 164 158 150 139 141 138 138 121
247 247 246 243 241 240 243 241 236 237 236 236 237 236 240 248 256 262 263 259 253 253 249 247 247 229 213 208 205 194 192 188 179 171 166 164 158 156 149 146 148 135 123
255 254 252 246 245 243 241 238 238 236 234 236 238 238 239 249 253 256 262 258 249 248 242 236 233 221 210 191 175 167 169 174 173 167 161 155 152 153 151 146 142 115 102
266 261 258 254 251 249 247 244 241 236 235 235 236 236 237 249 253 255 255 248 247 252 246 235 223 214 205 185 167 158 149 144 139 138 137 140 146 148 144 136 138 137 134
277 272 265 257 251 248 246 246 243 234 235 238 243 238 235 243 250 251 247 230 242 251 249 233 219 209 195 182 170 160 157 151 140 129 125 127 136 143 146 151 152 148 141
280 278 272 264 257 253 249 246 242 239 239 239 244 246 240 242 249 248 243 222 227 238 242 230 212 195 187 181 174 165 157 145 138 132 127 124 121 127 135 140 148 152 150
280 277 273 267 266 272 253 249 241 235 238 242 244 252 248 245 243 246 242 227 217 224 234 223 198 184 175 170 166 148 141 135 131 129 127 129 131 134 133 131 131 129 135
284 279 275 270 262 259 253 249 245 235 232 234 231 239 248 244 246 244 236 225 220 218 223 209 180 173 164 155 149 146 142 137 136 134 135 135 131 129 120 110 104 100 83
283 280 275 269 262 255 249 243 238 231 227 227 227 231 236 236 231 217 206 204 208 209 200 177 163 165 156 139 142 144 138 137 138 135 131 123 113 112 119 123 123 117 96
284 280 276 269 262 257 249 241 235 229 219 215 219 212 207 220 225 204 187 193 189 176 156 150 155 156 149 140 139 133 128 129 125 125 126 125 122 118 114 110 116 108 109
287 282 276 267 260 254 252 262 249 239 238 232 225 212 208 206 196 190 186 177 166 152 152 155 157 160 153 148 144 134 130 134 133 130 131 132 133 130 121 106 108 117 122
289 286 280 268 260 255 248 246 261 270 253 243 227 210 189 167 170 173 169 157 152 148 147 151 151 154 148 145 142 135 134 139 137 138 140 139 135 131 127 125 119 117 121
296 291 288 267 256 250 245 235 223 218 201 92 94 168 161 158 162 164 152 139 143 150 143 146 143 142 141 140 138 131 132 136 137 140 140 140 139 138 137 139 139 136 134
306 298 288 271 254 239 232 222 210 197 168 136 107 93 123 129 133 147 150 146 144 140 134 135 130 135 137 136 135 134 137 141 143 141 144 147 145 140 143 150 150 150 138
312 320 322 294 272 238 213 199 184 167 155 145 146 148 143 129 131 149 161 143 132 128 126 136 139 141 141 140 138 137 138 141 143 141 147 149 147 146 150 152 153 156 158
321 323 336 335 317 257 192 170 163 157 153 149 156 168 165 156 157 161 165 164 152 151 151 152 152 151 145 142 141 143 145 148 150 148 149 149 149 148 149 151 154 155 154
322 321 319 322 323 299 147 145 147 147 143 142 139 151 166 151 153 162 168 171 172 172 161 156 158 160 159 156 150 147 149 150 151 148 147 148 149 148 145 144 147 151 154
321 323 327 321 330 104 124 135 136 131 130 134 137 141 159 161 156 161 173 177 173 171 164 159 158 161 156 153 153 154 157 160 159 153 148 147 148 149 147 149 154 154 162
317 325 345 4 36 74 98 116 125 128 129 130 133 141 154 154 151 159 171 173 165 165 165 157 161 159 152 149 151 153 153 153 151 151 149 149 150 150 150 153 160 168 172
321 328 21 57 62 71 85 96 105 113 119 124 130 135 141 141 142 150 160 168 167 168 163 154 150 150 151 154 155 153 152 152 153 151 146 146 152 156 158 162 164 165 170
340 354 69 118 103 91 96 102 107 115 118 123 130 135 138 143 150 158 155 148 144 150 151 147 150 147 149 152 155 152 155 159 160 157 151 147 152 160 161 166 173 176 179